Content
SEND FEEDBACK

Daily
Averages
Monthly
Summary
United States of America

EMPORIA, KANSAS


Home > North America > United States > Kansas
Elevation: 1204 feet     Latitude: 38 19N     Longitude: 096 11W

WEATHER
 
SELECT A DAY
Number of Records: 200,240;   Date Range: 1/1/95 - 10/21/14
 
SHARE

PRINT THIS DATA

[ ← Previous Day ]
WEATHER ALMANAC - JANUARY 17, 2013
[ Next Day → ]
[ °C ]   °F
Weather ElementAverageHighLow
Temperature37.3 °F51.1 °F (3:53 pm)26.1 °F (7:53 am)
Dewpoint27.4 °F30.9 °F (9:53 am)24.1 °F (3:53 am)
Humidity70.1 %92 % (7:53 am)43 % (3:53 pm)
Barometer30.44 in30.52 in (10:53 am)30.31 in (1:53 am)
Wind Speed6.8 mph12.7 mph (10:53 pm)
Weather ElementAverage
Visibility10 mi
Wind DirectionWSW (237.3 °)

Weather ElementTotal
Precipitation---
Heating Degree Days26.4 (Base 65)
Averaged from 22 records on January 17, 2013
WEATHER CONDITIONS BREAKOUT
WIND DIRECTION BREAKOUT
WEATHER BY HOUR - JANUARY 17, 2013
[ °C ]   °F
Local TimeTemperatureDewpointHumidityBarometerVisibilityWind DirectionWind SpeedGust SpeedPrecipitationEventsConditions
1:53 AM33.1 °F27.0 °F78 %30.31 in10.0 miNNW (330°)5.8 mphClear
2:53 AM32.0 °F27.0 °F82 %30.34 in10.0 miNW (310°)6.9 mphClear
3:53 AM27.0 °F24.1 °F89 %30.36 in10.0 miWNW (290°)8.1 mphClear
4:53 AM28.0 °F25.0 °F88 %30.39 in10.0 miWNW (300°)5.8 mphClear
6:53 AM27.0 °F24.1 °F89 %30.43 in10.0 miNW (310°)4.6 mphClear
7:53 AM26.1 °F24.1 °F92 %30.46 in10.0 miWNW (300°)6.9 mphClear
8:53 AM30.9 °F28.0 °F89 %30.49 in10.0 miNW (310°)4.6 mphClear
9:53 AM37.0 °F30.9 °F79 %30.51 in10.0 miNorth (350°)8.1 mphClear
10:53 AM41.0 °F30.9 °F67 %30.52 in10.0 miNNW (330°)8.1 mphClear
11:53 AM46.0 °F30.9 °F56 %30.50 in10.0 miNorth (360°)9.2 mphClear
12:53 PM48.0 °F30.9 °F52 %30.47 in10.0 miNNW (330°)8.1 mphClear
1:53 PM50.0 °F30.0 °F46 %30.45 in10.0 miNorth (10°)8.1 mphClear
2:53 PM50.0 °F30.0 °F46 %30.44 in10.0 miWNW (290°)3.5 mphClear
3:53 PM51.1 °F28.9 °F43 %30.45 in10.0 miWNW (300°)4.6 mphClear
4:53 PM48.9 °F28.9 °F46 %30.46 in10.0 miCalmClear
5:53 PM46.0 °F28.9 °F51 %30.47 in10.0 miCalmClear
6:53 PM37.9 °F27.0 °F65 %30.47 in10.0 miSSW (200°)5.8 mphClear
7:53 PM33.1 °F25.0 °F72 %30.47 in10.0 miSouth (180°)9.2 mphClear
8:53 PM32.0 °F25.0 °F75 %30.46 in10.0 miSouth (170°)9.2 mphClear
9:53 PM30.9 °F25.0 °F79 %30.45 in10.0 miSouth (180°)9.2 mphClear
10:53 PM32.0 °F26.1 °F79 %30.43 in10.0 miSouth (190°)12.7 mphClear
11:53 PM32.0 °F26.1 °F79 %30.43 in10.0 miSouth (180°)10.4 mphClear
Hourly data recorded from KEMP, located miles away from Emporia, Kansas







STORIES FROM OUR PARTNERS